Time,TemperatureF,DewpointF,PressureIn,WindDirection,WindDirectionDegrees,WindSpeedMPH,WindSpeedGustMPH,Humidity,HourlyPrecipIn,Conditions,Clouds,dailyrainin,SoftwareType,DateUTC
2013-04-03 00:00:00,34.0,26.0,29.99,WNW,293,0.0,1.1,72,0.00,,,0.00,WUHU21636XXSP,2013-04-02 22:00:00,
2013-04-03 00:05:00,34.0,26.3,29.99,WNW,293,1.1,1.1,73,0.00,,,0.00,WUHU21636XXSP,2013-04-02 22:05:00,
2013-04-03 00:10:00,34.0,26.3,29.99,WNW,293,1.1,1.1,73,0.00,,,0.00,WUHU21636XXSP,2013-04-02 22:10:00,
2013-04-03 00:15:00,34.0,26.3,29.99,WNW,293,0.0,1.1,73,0.00,,,0.00,WUHU21636XXSP,2013-04-02 22:15:00,
2013-04-03 00:20:00,34.0,26.3,29.99,WNW,293,0.0,1.1,73,0.00,,,0.00,WUHU21636XXSP,2013-04-02 22:20:00,
2013-04-03 00:25:00,34.0,26.6,29.99,WNW,293,0.0,0.0,74,0.00,,,0.00,WUHU21636XXSP,2013-04-02 22:25:00,
2013-04-03 00:30:00,33.8,26.4,29.99,WNW,293,0.4,0.4,74,0.00,,,0.00,WUHU21636XXSP,2013-04-02 22:30:00,
2013-04-03 00:35:00,33.6,26.6,29.99,WNW,293,1.1,1.1,75,0.00,,,0.00,WUHU21636XXSP,2013-04-02 22:35:00,
2013-04-03 00:40:00,33.6,26.6,29.99,WNW,293,1.3,1.3,75,0.00,,,0.00,WUHU21636XXSP,2013-04-02 22:40:00,
2013-04-03 00:45:00,33.6,26.6,29.99,WNW,293,2.2,2.2,75,0.00,,,0.00,WUHU21636XXSP,2013-04-02 22:45:00,
2013-04-03 00:50:00,33.6,26.6,29.99,WNW,293,1.3,2.2,75,0.00,,,0.00,WUHU21636XXSP,2013-04-02 22:50:00,
2013-04-03 00:55:00,33.6,26.9,29.99,WNW,293,0.0,2.2,76,0.00,,,0.00,WUHU21636XXSP,2013-04-02 22:55:00,
2013-04-03 01:00:00,33.6,26.9,29.99,WNW,293,0.0,1.3,76,0.00,,,0.00,WUHU21636XXSP,2013-04-02 23:00:00,
2013-04-03 01:05:00,33.6,26.9,29.99,WNW,293,0.0,0.0,76,0.00,,,0.00,WUHU21636XXSP,2013-04-02 23:05:00,
2013-04-03 01:10:00,33.6,26.9,29.99,WNW,293,0.0,0.0,76,0.00,,,0.00,WUHU21636XXSP,2013-04-02 23:10:00,
2013-04-03 01:15:00,33.6,26.9,29.99,WNW,293,0.0,0.0,76,0.00,,,0.00,WUHU21636XXSP,2013-04-02 23:15:00,
2013-04-03 01:20:00,33.6,26.9,29.99,WNW,293,0.9,0.9,76,0.00,,,0.00,WUHU21636XXSP,2013-04-02 23:20:00,
2013-04-03 01:25:00,33.6,26.9,29.99,WNW,293,0.0,0.9,76,0.00,,,0.00,WUHU21636XXSP,2013-04-02 23:25:00,
2013-04-03 01:30:00,33.6,26.9,29.99,WNW,293,0.7,0.9,76,0.00,,,0.00,WUHU21636XXSP,2013-04-02 23:30:00,
2013-04-03 01:35:00,33.6,26.9,29.99,WNW,293,0.0,0.7,76,0.00,,,0.00,WUHU21636XXSP,2013-04-02 23:35:00,
2013-04-03 01:40:00,33.6,26.9,29.99,WNW,293,0.0,0.7,76,0.00,,,0.00,WUHU21636XXSP,2013-04-02 23:40:00,
2013-04-03 01:45:00,33.6,26.9,29.99,WNW,293,0.0,0.0,76,0.00,,,0.00,WUHU21636XXSP,2013-04-02 23:45:00,
2013-04-03 01:50:00,33.6,26.9,29.99,NNW,338,0.0,0.0,76,0.00,,,0.00,WUHU21636XXSP,2013-04-02 23:50:00,
2013-04-03 01:55:00,33.6,26.9,29.99,NNW,338,0.0,0.0,76,0.00,,,0.00,WUHU21636XXSP,2013-04-02 23:55:00,
2013-04-03 02:00:00,33.6,26.9,29.99,WNW,293,0.0,0.0,76,0.00,,,0.00,WUHU21636XXSP,2013-04-03 00:00:00,
2013-04-03 02:05:00,33.6,26.9,29.99,WNW,293,0.0,0.0,76,0.00,,,0.00,WUHU21636XXSP,2013-04-03 00:05:00,
2013-04-03 02:10:00,33.6,26.9,29.99,WNW,293,0.0,0.0,76,0.00,,,0.00,WUHU21636XXSP,2013-04-03 00:10:00,
2013-04-03 02:15:00,33.6,26.9,29.99,WNW,293,0.0,0.0,76,0.00,,,0.00,WUHU21636XXSP,2013-04-03 00:15:00,
2013-04-03 02:20:00,33.6,26.9,29.99,WNW,293,0.0,0.0,76,0.00,,,0.00,WUHU21636XXSP,2013-04-03 00:20:00,
2013-04-03 02:25:00,33.6,26.9,29.99,ESE,113,0.0,0.0,76,0.00,,,0.00,WUHU21636XXSP,2013-04-03 00:25:00,
2013-04-03 02:30:00,33.6,27.2,29.99,NW,315,0.0,0.0,77,0.00,,,0.00,WUHU21636XXSP,2013-04-03 00:30:00,
2013-04-03 02:35:00,33.6,27.2,29.99,ENE,68,0.7,0.7,77,0.00,,,0.00,WUHU21636XXSP,2013-04-03 00:35:00,
2013-04-03 02:40:00,33.6,27.2,29.99,North,0,0.0,0.7,77,0.00,,,0.00,WUHU21636XXSP,2013-04-03 00:40:00,
2013-04-03 02:45:00,33.6,27.2,29.99,WNW,293,0.0,0.7,77,0.00,,,0.00,WUHU21636XXSP,2013-04-03 00:45:00,
2013-04-03 02:50:00,33.6,27.2,29.99,NW,315,0.0,0.0,77,0.00,,,0.00,WUHU21636XXSP,2013-04-03 00:50:00,
2013-04-03 02:55:00,33.6,27.2,29.99,WNW,293,0.0,0.0,77,0.00,,,0.00,WUHU21636XXSP,2013-04-03 00:55:00,
2013-04-03 03:00:00,33.4,27.0,29.99,WNW,293,0.0,0.0,77,0.00,,,0.00,WUHU21636XXSP,2013-04-03 01:00:00,
2013-04-03 03:05:00,33.4,27.0,29.99,WNW,293,0.0,0.0,77,0.00,,,0.00,WUHU21636XXSP,2013-04-03 01:05:00,
2013-04-03 03:10:00,33.4,27.0,29.99,WNW,293,0.9,0.9,77,0.00,,,0.00,WUHU21636XXSP,2013-04-03 01:10:00,
2013-04-03 03:15:00,33.4,27.0,29.99,WNW,293,0.4,0.9,77,0.00,,,0.00,WUHU21636XXSP,2013-04-03 01:15:00,
2013-04-03 03:20:00,33.4,27.0,29.99,WNW,293,0.0,0.9,77,0.00,,,0.00,WUHU21636XXSP,2013-04-03 01:20:00,
2013-04-03 03:25:00,33.4,26.7,29.99,SE,135,0.0,0.4,76,0.00,,,0.00,WUHU21636XXSP,2013-04-03 01:25:00,
2013-04-03 03:30:00,33.4,26.7,29.99,West,270,0.0,0.0,76,0.00,,,0.00,WUHU21636XXSP,2013-04-03 01:30:00,
2013-04-03 03:35:00,33.4,26.7,29.99,South,180,0.0,0.0,76,0.00,,,0.00,WUHU21636XXSP,2013-04-03 01:35:00,
2013-04-03 03:40:00,33.4,26.7,29.99,WNW,293,0.0,0.0,76,0.00,,,0.00,WUHU21636XXSP,2013-04-03 01:40:00,
2013-04-03 03:45:00,33.4,26.7,29.99,WNW,293,0.0,0.0,76,0.00,,,0.00,WUHU21636XXSP,2013-04-03 01:45:00,
2013-04-03 03:50:00,33.4,26.7,29.99,WNW,293,0.0,0.0,76,0.00,,,0.00,WUHU21636XXSP,2013-04-03 01:50:00,
2013-04-03 03:55:00,33.4,26.7,29.99,WNW,293,0.7,0.7,76,0.00,,,0.00,WUHU21636XXSP,2013-04-03 01:55:00,
2013-04-03 04:00:00,33.4,26.7,29.99,WNW,293,0.0,0.7,76,0.00,,,0.00,WUHU21636XXSP,2013-04-03 02:00:00,
2013-04-03 04:05:00,33.3,26.6,29.99,NW,315,0.0,0.7,76,0.00,,,0.00,WUHU21636XXSP,2013-04-03 02:05:00,
2013-04-03 04:10:00,33.4,26.7,29.99,WNW,293,0.0,0.0,76,0.00,,,0.00,WUHU21636XXSP,2013-04-03 02:10:00,
2013-04-03 04:15:00,33.4,26.7,29.99,WNW,293,0.0,0.0,76,0.00,,,0.00,WUHU21636XXSP,2013-04-03 02:15:00,
2013-04-03 04:20:00,33.4,26.7,29.99,West,270,0.0,0.0,76,0.00,,,0.00,WUHU21636XXSP,2013-04-03 02:20:00,
2013-04-03 04:25:00,33.3,26.6,29.99,WNW,293,1.3,1.3,76,0.00,,,0.00,WUHU21636XXSP,2013-04-03 02:25:00,
2013-04-03 04:30:00,33.3,26.6,29.99,NW,315,0.0,1.3,76,0.00,,,0.00,WUHU21636XXSP,2013-04-03 02:30:00,
2013-04-03 04:35:00,33.3,26.6,29.99,WNW,293,0.0,1.3,76,0.00,,,0.00,WUHU21636XXSP,2013-04-03 02:35:00,
2013-04-03 04:40:00,33.1,26.4,29.99,WNW,293,0.0,0.0,76,0.00,,,0.00,WUHU21636XXSP,2013-04-03 02:40:00,
2013-04-03 04:45:00,33.1,26.4,29.99,WNW,293,0.0,0.0,76,0.00,,,0.00,WUHU21636XXSP,2013-04-03 02:45:00,
2013-04-03 04:50:00,33.1,26.4,29.99,WNW,293,0.0,0.0,76,0.00,,,0.00,WUHU21636XXSP,2013-04-03 02:50:00,
2013-04-03 04:55:00,33.1,26.7,29.99,WNW,293,0.0,0.0,77,0.00,,,0.00,WUHU21636XXSP,2013-04-03 02:55:00,
2013-04-03 05:00:00,33.1,26.7,29.99,WNW,293,0.0,0.0,77,0.00,,,0.00,WUHU21636XXSP,2013-04-03 03:00:00,
2013-04-03 05:05:00,33.1,26.7,29.99,WNW,293,0.9,0.9,77,0.00,,,0.00,WUHU21636XXSP,2013-04-03 03:05:00,
2013-04-03 05:10:00,33.1,26.7,29.99,WNW,293,0.0,0.9,77,0.00,,,0.00,WUHU21636XXSP,2013-04-03 03:10:00,
2013-04-03 05:15:00,33.3,26.9,29.99,WNW,293,0.0,0.9,77,0.00,,,0.00,WUHU21636XXSP,2013-04-03 03:15:00,
2013-04-03 05:20:00,33.1,26.7,29.99,WNW,293,0.9,0.9,77,0.00,,,0.00,WUHU21636XXSP,2013-04-03 03:20:00,
2013-04-03 05:25:00,33.1,26.7,29.99,NW,315,0.0,0.9,77,0.00,,,0.00,WUHU21636XXSP,2013-04-03 03:25:00,
2013-04-03 05:30:00,33.1,26.7,29.99,WNW,293,2.0,2.0,77,0.00,,,0.00,WUHU21636XXSP,2013-04-03 03:30:00,
2013-04-03 05:35:00,33.1,26.7,29.99,WNW,293,1.6,2.0,77,0.00,,,0.00,WUHU21636XXSP,2013-04-03 03:35:00,
2013-04-03 05:40:00,33.1,26.7,29.99,WNW,293,0.0,2.0,77,0.00,,,0.00,WUHU21636XXSP,2013-04-03 03:40:00,
2013-04-03 05:45:00,33.1,26.7,29.98,WNW,293,1.1,1.6,77,0.00,,,0.00,WUHU21636XXSP,2013-04-03 03:45:00,
2013-04-03 05:50:00,33.1,26.7,29.98,WNW,293,0.4,1.1,77,0.00,,,0.00,WUHU21636XXSP,2013-04-03 03:50:00,
2013-04-03 05:55:00,33.1,26.7,29.98,NW,315,0.0,1.1,77,0.00,,,0.00,WUHU21636XXSP,2013-04-03 03:55:00,
2013-04-03 06:00:00,33.1,26.7,29.98,WNW,293,0.7,0.7,77,0.00,,,0.00,WUHU21636XXSP,2013-04-03 04:00:00,
2013-04-03 06:05:00,33.1,27.0,29.98,West,270,0.0,0.7,78,0.00,,,0.00,WUHU21636XXSP,2013-04-03 04:05:00,
2013-04-03 06:10:00,33.1,27.0,29.98,WNW,293,0.0,0.7,78,0.00,,,0.00,WUHU21636XXSP,2013-04-03 04:10:00,
2013-04-03 06:15:00,33.1,27.0,29.98,WNW,293,0.7,0.7,78,0.00,,,0.00,WUHU21636XXSP,2013-04-03 04:15:00,
2013-04-03 06:20:00,33.1,27.0,29.98,NW,315,1.1,1.1,78,0.00,,,0.00,WUHU21636XXSP,2013-04-03 04:20:00,
2013-04-03 06:25:00,33.1,27.0,29.98,WNW,293,0.0,1.1,78,0.00,,,0.00,WUHU21636XXSP,2013-04-03 04:25:00,
2013-04-03 06:30:00,32.9,26.8,29.98,WNW,293,0.0,1.1,78,0.00,,,0.00,WUHU21636XXSP,2013-04-03 04:30:00,
2013-04-03 06:35:00,32.9,26.8,29.99,WNW,293,0.0,0.0,78,0.00,,,0.00,WUHU21636XXSP,2013-04-03 04:35:00,
2013-04-03 06:40:00,32.9,26.8,29.99,WNW,293,0.0,0.0,78,0.00,,,0.00,WUHU21636XXSP,2013-04-03 04:40:00,
2013-04-03 06:45:00,32.9,26.8,29.99,WNW,293,0.4,0.4,78,0.00,,,0.00,WUHU21636XXSP,2013-04-03 04:45:00,
2013-04-03 06:50:00,32.9,26.8,29.99,WNW,293,0.0,0.4,78,0.00,,,0.00,WUHU21636XXSP,2013-04-03 04:50:00,
2013-04-03 06:55:00,32.7,26.3,29.99,WNW,293,0.4,0.4,77,0.00,,,0.00,WUHU21636XXSP,2013-04-03 04:55:00,
2013-04-03 07:00:00,32.7,26.6,29.99,WNW,293,0.0,0.4,78,0.00,,,0.00,WUHU21636XXSP,2013-04-03 05:00:00,
2013-04-03 07:05:00,32.7,26.6,29.99,WNW,293,0.0,0.4,78,0.00,,,0.00,WUHU21636XXSP,2013-04-03 05:05:00,
2013-04-03 07:10:00,32.7,26.6,29.99,WNW,293,2.2,2.2,78,0.00,,,0.00,WUHU21636XXSP,2013-04-03 05:10:00,
2013-04-03 07:15:00,32.7,26.3,29.99,WNW,293,1.3,2.2,77,0.00,,,0.00,WUHU21636XXSP,2013-04-03 05:15:00,
2013-04-03 07:20:00,32.7,26.6,29.99,WNW,293,0.0,2.2,78,0.00,,,0.00,WUHU21636XXSP,2013-04-03 05:20:00,
2013-04-03 07:25:00,32.5,26.1,29.99,WNW,293,1.8,1.8,77,0.00,,,0.00,WUHU21636XXSP,2013-04-03 05:25:00,
2013-04-03 07:30:00,32.5,26.4,29.99,WNW,293,0.0,1.8,78,0.00,,,0.00,WUHU21636XXSP,2013-04-03 05:30:00,
2013-04-03 07:35:00,32.5,26.4,29.99,WNW,293,0.0,1.8,78,0.00,,,0.00,WUHU21636XXSP,2013-04-03 05:35:00,
2013-04-03 07:40:00,32.5,26.4,30.00,WNW,293,0.0,0.0,78,0.00,,,0.00,WUHU21636XXSP,2013-04-03 05:40:00,
2013-04-03 07:45:00,32.7,26.6,29.99,WNW,293,0.0,0.0,78,0.00,,,0.00,WUHU21636XXSP,2013-04-03 05:45:00,
2013-04-03 07:50:00,32.7,26.6,29.99,WNW,293,0.0,0.0,78,0.00,,,0.00,WUHU21636XXSP,2013-04-03 05:50:00,
2013-04-03 07:55:00,32.7,26.6,29.99,WNW,293,0.0,0.0,78,0.00,,,0.00,WUHU21636XXSP,2013-04-03 05:55:00,
2013-04-03 08:00:00,32.7,26.6,30.00,WNW,293,1.1,1.1,78,0.00,,,0.00,WUHU21636XXSP,2013-04-03 06:00:00,
2013-04-03 08:05:00,32.7,26.6,30.00,WNW,293,0.0,1.1,78,0.00,,,0.00,WUHU21636XXSP,2013-04-03 06:05:00,
2013-04-03 08:10:00,32.9,26.8,30.00,WNW,293,0.9,1.1,78,0.00,,,0.00,WUHU21636XXSP,2013-04-03 06:10:00,
2013-04-03 08:15:00,32.9,26.8,30.00,WNW,293,0.0,0.9,78,0.00,,,0.00,WUHU21636XXSP,2013-04-03 06:15:00,
2013-04-03 08:20:00,33.1,27.0,30.00,WNW,293,0.4,0.9,78,0.00,,,0.00,WUHU21636XXSP,2013-04-03 06:20:00,
2013-04-03 08:25:00,33.1,27.0,30.00,WNW,293,0.0,0.4,78,0.00,,,0.00,WUHU21636XXSP,2013-04-03 06:25:00,
2013-04-03 08:30:00,33.1,27.0,30.00,WNW,293,1.6,1.6,78,0.00,,,0.00,WUHU21636XXSP,2013-04-03 06:30:00,
2013-04-03 08:35:00,33.4,27.3,30.00,WNW,293,0.0,1.6,78,0.00,,,0.00,WUHU21636XXSP,2013-04-03 06:35:00,
2013-04-03 08:40:00,33.4,27.3,30.00,WNW,293,0.0,1.6,78,0.00,,,0.00,WUHU21636XXSP,2013-04-03 06:40:00,
2013-04-03 08:45:00,33.6,27.2,30.00,WNW,293,0.9,0.9,77,0.00,,,0.00,WUHU21636XXSP,2013-04-03 06:45:00,
2013-04-03 08:50:00,34.0,27.6,30.00,WNW,293,0.0,0.9,77,0.00,,,0.00,WUHU21636XXSP,2013-04-03 06:50:00,
2013-04-03 08:55:00,34.0,27.6,30.00,NNE,23,0.0,0.9,77,0.00,,,0.00,WUHU21636XXSP,2013-04-03 06:55:00,
2013-04-03 09:00:00,34.0,27.6,30.00,WNW,293,0.4,0.4,77,0.00,,,0.00,WUHU21636XXSP,2013-04-03 07:00:00,
2013-04-03 09:05:00,34.3,27.6,30.00,WNW,293,0.0,0.4,76,0.00,,,0.00,WUHU21636XXSP,2013-04-03 07:05:00,
2013-04-03 09:10:00,34.5,27.8,30.00,West,270,0.0,0.4,76,0.00,,,0.00,WUHU21636XXSP,2013-04-03 07:10:00,
2013-04-03 09:15:00,34.5,27.8,30.00,WSW,248,0.0,0.0,76,0.00,,,0.00,WUHU21636XXSP,2013-04-03 07:15:00,
2013-04-03 09:20:00,34.9,27.8,30.00,WNW,293,0.0,0.0,75,0.00,,,0.00,WUHU21636XXSP,2013-04-03 07:20:00,
2013-04-03 09:25:00,35.2,28.1,30.00,WNW,293,0.0,0.0,75,0.00,,,0.00,WUHU21636XXSP,2013-04-03 07:25:00,
2013-04-03 09:30:00,35.2,27.8,30.00,WNW,293,0.7,0.7,74,0.00,,,0.00,WUHU21636XXSP,2013-04-03 07:30:00,
2013-04-03 09:35:00,35.8,28.4,30.00,WNW,293,0.0,0.7,74,0.00,,,0.00,WUHU21636XXSP,2013-04-03 07:35:00,
2013-04-03 09:40:00,36.0,28.2,30.00,East,90,1.3,1.3,73,0.00,,,0.00,WUHU21636XXSP,2013-04-03 07:40:00,
2013-04-03 09:45:00,36.1,28.0,30.00,ESE,113,0.0,1.3,72,0.00,,,0.00,WUHU21636XXSP,2013-04-03 07:45:00,
2013-04-03 09:50:00,36.3,28.2,30.00,NW,315,0.0,1.3,72,0.00,,,0.00,WUHU21636XXSP,2013-04-03 07:50:00,
2013-04-03 09:55:00,36.5,28.4,30.00,NW,315,0.0,0.0,72,0.00,,,0.00,WUHU21636XXSP,2013-04-03 07:55:00,
2013-04-03 10:00:00,36.7,28.2,30.00,WNW,293,1.6,1.6,71,0.00,,,0.00,WUHU21636XXSP,2013-04-03 08:00:00,
2013-04-03 10:05:00,37.0,28.2,30.00,SE,135,0.0,1.6,70,0.00,,,0.00,WUHU21636XXSP,2013-04-03 08:05:00,
2013-04-03 10:10:00,37.2,28.0,30.00,SE,135,0.0,1.6,69,0.00,,,0.00,WUHU21636XXSP,2013-04-03 08:10:00,
2013-04-03 10:15:00,37.2,28.0,30.00,SE,135,0.0,0.0,69,0.00,,,0.00,WUHU21636XXSP,2013-04-03 08:15:00,
2013-04-03 10:20:00,37.6,28.1,30.00,SW,225,0.4,0.4,68,0.00,,,0.00,WUHU21636XXSP,2013-04-03 08:20:00,
2013-04-03 10:25:00,37.8,27.9,30.00,WNW,293,0.0,0.4,67,0.00,,,0.00,WUHU21636XXSP,2013-04-03 08:25:00,
2013-04-03 10:30:00,37.9,28.0,30.00,WNW,293,0.0,0.4,67,0.00,,,0.00,WUHU21636XXSP,2013-04-03 08:30:00,
2013-04-03 10:35:00,37.8,27.5,30.00,WNW,293,3.6,3.6,66,0.00,,,0.00,WUHU21636XXSP,2013-04-03 08:35:00,
2013-04-03 10:40:00,37.6,27.0,30.00,WNW,293,0.9,3.6,65,0.00,,,0.00,WUHU21636XXSP,2013-04-03 08:40:00,
2013-04-03 10:45:00,37.6,27.0,30.00,NW,315,0.0,3.6,65,0.00,,,0.00,WUHU21636XXSP,2013-04-03 08:45:00,
2013-04-03 10:50:00,37.6,27.0,30.00,West,270,0.4,0.9,65,0.00,,,0.00,WUHU21636XXSP,2013-04-03 08:50:00,
2013-04-03 10:55:00,37.6,27.0,30.00,NW,315,0.0,0.4,65,0.00,,,0.00,WUHU21636XXSP,2013-04-03 08:55:00,
2013-04-03 11:00:00,37.6,27.0,30.00,WNW,293,0.9,0.9,65,0.00,,,0.00,WUHU21636XXSP,2013-04-03 09:00:00,
2013-04-03 11:05:00,37.6,26.6,30.00,West,270,0.4,0.9,64,0.00,,,0.00,WUHU21636XXSP,2013-04-03 09:05:00,
2013-04-03 11:10:00,37.6,26.6,30.00,South,180,0.0,0.9,64,0.00,,,0.00,WUHU21636XXSP,2013-04-03 09:10:00,
2013-04-03 11:15:00,37.6,26.6,30.00,WNW,293,1.3,1.3,64,0.00,,,0.00,WUHU21636XXSP,2013-04-03 09:15:00,
2013-04-03 11:20:00,37.6,25.8,30.00,ESE,113,0.0,1.3,62,0.00,,,0.00,WUHU21636XXSP,2013-04-03 09:20:00,
2013-04-03 11:25:00,37.6,25.8,30.00,WNW,293,0.0,1.3,62,0.00,,,0.00,WUHU21636XXSP,2013-04-03 09:25:00,
2013-04-03 11:27:00,37.6,26.8,30.00,WNW,292,0.0,7.6,62,0.00,,,0.00,WUHU21636XXSP,2013-04-03 09:27:00,
2013-04-03 11:30:00,37.6,25.8,30.00,WNW,293,2.2,2.2,62,0.00,,,0.00,WUHU21636XXSP,2013-04-03 09:30:00,
2013-04-03 11:32:00,37.6,26.8,30.00,WNW,292,0.9,7.6,62,0.00,,,0.00,WUHU21636XXSP,2013-04-03 09:32:00,
2013-04-03 11:35:00,37.6,25.8,30.00,West,270,0.0,2.2,62,0.00,,,0.00,WUHU21636XXSP,2013-04-03 09:35:00,
2013-04-03 11:40:00,37.6,26.8,30.00,NW,315,0.0,0.0,62,0.00,,,0.00,WUHU21636XXSP,2013-04-03 09:40:00,
2013-04-03 11:45:00,37.6,26.8,30.00,SE,135,0.7,0.7,62,0.00,,,0.00,WUHU21636XXSP,2013-04-03 09:45:00,
2013-04-03 11:50:00,37.6,25.8,30.00,SE,135,0.0,0.7,62,0.00,,,0.00,WUHU21636XXSP,2013-04-03 09:50:00,
2013-04-03 11:51:00,37.6,25.7,30.00,WNW,292,0.0,0.7,62,0.00,,,0.00,WUHU21636XXSP,2013-04-03 09:51:00,
2013-04-03 11:55:00,37.6,26.2,30.00,WNW,293,0.0,0.7,63,0.00,,,0.00,WUHU21636XXSP,2013-04-03 09:55:00,
2013-04-03 12:00:00,37.6,26.2,30.00,WNW,293,0.0,0.0,63,0.00,,,0.00,WUHU21636XXSP,2013-04-03 10:00:00,
2013-04-03 12:04:00,37.6,25.7,30.00,NW,315,0.0,0.0,64,0.00,,,0.00,WUHU21636XXSP,2013-04-03 10:04:00,
2013-04-03 12:09:00,37.8,26.6,30.00,WNW,292,0.0,0.0,64,0.00,,,0.00,WUHU21636XXSP,2013-04-03 10:09:00,
2013-04-03 12:10:00,38.5,27.4,29.97,WNW,294,3.0,4.0,64,0.00,BKN,,0.00,WeatherDisplay:10.37,2013-04-03 10:10:00,
2013-04-03 12:14:00,37.6,26.4,30.00,WNW,292,1.6,2.0,64,0.00,,,0.00,WUHU21636XXSP,2013-04-03 10:14:00,
2013-04-03 12:19:00,37.2,26.1,30.00,WNW,292,0.0,2.0,64,0.00,,,0.00,WUHU21636XXSP,2013-04-03 10:19:00,
2013-04-03 12:20:00,38.5,27.4,29.97,ESE,112,0.0,4.0,64,0.00,BKN,,0.00,WeatherDisplay:10.37,2013-04-03 10:20:00,
2013-04-03 12:24:00,37.2,26.1,30.00,NW,315,2.0,2.0,64,0.00,,,0.00,WUHU21636XXSP,2013-04-03 10:24:00,
2013-04-03 12:29:00,37.2,26.1,30.00,WNW,292,4.5,4.5,64,0.00,,,0.00,WUHU21636XXSP,2013-04-03 10:29:00,
2013-04-03 12:30:00,37.9,27.6,29.98,WNW,292,2.0,3.0,66,0.00,BKN,,0.00,WeatherDisplay:10.37,2013-04-03 10:30:00,
2013-04-03 12:34:00,37.2,26.1,30.00,WNW,292,1.1,4.5,64,0.00,,,0.00,WUHU21636XXSP,2013-04-03 10:34:00,
2013-04-03 12:39:00,37.6,26.4,30.00,WNW,292,0.0,2.2,64,0.00,,,0.00,WUHU21636XXSP,2013-04-03 10:39:00,
2013-04-03 12:40:00,37.6,27.2,29.98,WNW,292,2.0,2.0,66,0.00,BKN,,0.00,WeatherDisplay:10.37,2013-04-03 10:40:00,
2013-04-03 12:44:00,37.9,26.8,29.99,WNW,292,3.4,3.4,64,0.00,,,0.00,WUHU21636XXSP,2013-04-03 10:44:00,
2013-04-03 12:49:00,38.1,26.4,29.99,NW,315,0.9,3.4,63,0.00,,,0.00,WUHU21636XXSP,2013-04-03 10:49:00,
2013-04-03 12:50:00,37.2,27.3,29.98,WNW,301,1.0,2.0,67,0.00,BKN,,0.00,WeatherDisplay:10.37,2013-04-03 10:50:00,
2013-04-03 12:54:00,38.1,26.4,29.99,East,90,0.4,3.4,63,0.00,,,0.00,WUHU21636XXSP,2013-04-03 10:54:00,
2013-04-03 12:59:00,37.9,25.9,29.99,WNW,292,1.6,1.6,62,0.00,,,0.00,WUHU21636XXSP,2013-04-03 10:59:00,
2013-04-03 13:00:00,37.6,27.2,29.98,WNW,292,0.0,2.0,66,0.00,BKN,,0.00,WeatherDisplay:10.37,2013-04-03 11:00:00,
2013-04-03 13:04:00,37.9,26.4,29.99,WNW,292,0.0,1.6,62,0.00,,,0.00,WUHU21636XXSP,2013-04-03 11:04:00,
2013-04-03 13:09:00,38.1,26.4,29.99,WNW,292,0.0,1.6,63,0.00,,,0.00,WUHU21636XXSP,2013-04-03 11:09:00,
2013-04-03 13:10:00,37.2,27.3,29.98,SE,125,0.0,0.0,67,0.00,BKN,,0.00,WeatherDisplay:10.37,2013-04-03 11:10:00,
2013-04-03 13:14:00,37.9,25.9,29.99,WNW,292,3.6,3.6,62,0.00,,,0.00,WUHU21636XXSP,2013-04-03 11:14:00,
2013-04-03 13:19:00,37.9,25.9,29.99,WNW,292,1.3,3.6,61,0.00,,,0.00,WUHU21636XXSP,2013-04-03 11:19:00,
2013-04-03 13:20:00,37.0,27.5,29.98,WSW,256,0.0,2.0,68,0.00,BKN,,0.00,WeatherDisplay:10.37,2013-04-03 11:20:00,
2013-04-03 13:24:00,38.1,25.7,29.99,WNW,292,0.0,3.6,61,0.00,,,0.00,WUHU21636XXSP,2013-04-03 11:24:00,
2013-04-03 13:29:00,38.5,26.4,29.99,ESE,112,1.3,2.5,62,0.00,,,0.00,WUHU21636XXSP,2013-04-03 11:29:00,
2013-04-03 13:30:00,37.0,27.5,29.98,SE,135,1.0,2.0,68,0.00,BKN,,0.00,WeatherDisplay:10.37,2013-04-03 11:30:00,
2013-04-03 13:34:00,39.0,26.2,29.99,WNW,292,0.0,1.3,58,0.00,,,0.00,WUHU21636XXSP,2013-04-03 11:34:00,
2013-04-03 13:39:00,39.0,26.2,29.98,WNW,292,0.0,2.7,58,0.00,,,0.00,WUHU21636XXSP,2013-04-03 11:39:00,
2013-04-03 13:40:00,36.7,27.5,29.98,NW,309,1.0,2.0,69,0.00,BKN,,0.00,WeatherDisplay:10.37,2013-04-03 11:40:00,
2013-04-03 13:44:00,39.4,25.7,29.98,WNW,292,0.9,2.7,58,0.00,,,0.00,WUHU21636XXSP,2013-04-03 11:44:00,
2013-04-03 13:49:00,39.4,25.7,29.98,WNW,292,0.0,2.5,58,0.00,,,0.00,WUHU21636XXSP,2013-04-03 11:49:00,
2013-04-03 13:50:00,36.7,27.5,29.98,SSE,161,2.0,2.0,69,0.00,BKN,,0.00,WeatherDisplay:10.37,2013-04-03 11:50:00,
2013-04-03 13:54:00,39.7,27.0,29.98,ENE,67,0.0,3.1,60,0.00,,,0.00,WUHU21636XXSP,2013-04-03 11:54:00,
2013-04-03 13:59:00,39.4,27.0,29.98,WNW,292,1.3,3.1,61,0.00,,,0.00,WUHU21636XXSP,2013-04-03 11:59:00,
2013-04-03 14:00:00,36.7,27.5,29.98,ENE,66,1.0,2.0,69,0.00,BKN,,0.00,WeatherDisplay:10.37,2013-04-03 12:00:00,
2013-04-03 14:04:00,39.4,27.0,29.98,NW,315,0.0,1.3,63,0.00,,,0.00,WUHU21636XXSP,2013-04-03 12:04:00,
2013-04-03 14:09:00,39.0,27.7,29.98,ESE,112,0.0,4.3,64,0.00,,,0.00,WUHU21636XXSP,2013-04-03 12:09:00,
2013-04-03 14:10:00,36.5,27.6,29.98,WNW,295,0.0,1.0,70,0.00,BKN,,0.00,WeatherDisplay:10.37,2013-04-03 12:10:00,
2013-04-03 14:14:00,38.8,27.1,29.98,SSW,202,1.1,4.3,63,0.00,,,0.00,WUHU21636XXSP,2013-04-03 12:14:00,
2013-04-03 14:19:00,38.8,27.5,29.98,NNW,337,0.9,2.5,64,0.00,,,0.00,WUHU21636XXSP,2013-04-03 12:19:00,
2013-04-03 14:20:00,36.5,27.3,29.98,SE,135,0.0,0.0,69,0.00,BKN,,0.00,WeatherDisplay:10.37,2013-04-03 12:20:00,
2013-04-03 14:24:00,38.8,27.5,29.98,WNW,292,1.3,2.7,63,0.00,,,0.00,WUHU21636XXSP,2013-04-03 12:24:00,
2013-04-03 14:29:00,38.8,27.5,29.98,SSW,202,0.0,2.7,64,0.00,,,0.00,WUHU21636XXSP,2013-04-03 12:29:00,
2013-04-03 14:30:00,36.5,27.3,29.98,WNW,296,0.0,0.0,69,0.00,BKN,,0.00,WeatherDisplay:10.37,2013-04-03 12:30:00,
2013-04-03 14:34:00,39.0,27.7,29.98,WNW,292,0.0,2.7,64,0.00,,,0.00,WUHU21636XXSP,2013-04-03 12:34:00,
2013-04-03 14:39:00,39.4,27.7,29.98,SE,135,1.3,1.3,63,0.00,,,0.00,WUHU21636XXSP,2013-04-03 12:39:00,
2013-04-03 14:40:00,36.5,27.3,29.99,NW,320,2.0,2.0,69,0.00,BKN,,0.00,WeatherDisplay:10.37,2013-04-03 12:40:00,
2013-04-03 14:44:00,39.2,27.5,29.98,SSE,157,2.0,2.0,63,0.00,,,0.00,WUHU21636XXSP,2013-04-03 12:44:00,
2013-04-03 14:49:00,39.2,27.5,29.98,WNW,292,1.6,2.0,63,0.00,,,0.00,WUHU21636XXSP,2013-04-03 12:49:00,
2013-04-03 14:50:00,36.5,27.3,29.99,West,280,1.0,2.0,69,0.00,BKN,,0.00,WeatherDisplay:10.37,2013-04-03 12:50:00,
2013-04-03 14:54:00,38.8,27.1,29.98,WNW,292,4.0,4.0,63,0.00,,,0.00,WUHU21636XXSP,2013-04-03 12:54:00,
2013-04-03 14:59:00,38.7,27.0,29.98,WNW,292,0.7,4.0,63,0.00,,,0.00,WUHU21636XXSP,2013-04-03 12:59:00,
2013-04-03 15:00:00,36.5,27.3,29.99,WNW,289,0.0,1.0,69,0.00,BKN,,0.00,WeatherDisplay:10.37,2013-04-03 13:00:00,
2013-04-03 15:04:00,38.7,27.0,29.98,SE,135,0.4,4.0,63,0.00,,,0.00,WUHU21636XXSP,2013-04-03 13:04:00,
2013-04-03 15:09:00,38.7,27.0,29.98,ESE,112,0.0,1.3,63,0.00,,,0.00,WUHU21636XXSP,2013-04-03 13:09:00,
2013-04-03 15:10:00,36.3,27.5,29.99,SE,124,0.0,0.0,70,0.00,BKN,,0.00,WeatherDisplay:10.37,2013-04-03 13:10:00,
2013-04-03 15:14:00,38.8,27.1,29.98,WNW,292,1.8,2.9,63,0.00,,,0.00,WUHU21636XXSP,2013-04-03 13:14:00,
2013-04-03 15:19:00,38.8,27.1,29.98,WNW,292,2.7,2.9,63,0.00,,,0.00,WUHU21636XXSP,2013-04-03 13:19:00,
2013-04-03 15:20:00,36.1,27.3,29.99,ESE,107,0.0,0.0,70,0.00,BKN,,0.00,WeatherDisplay:10.37,2013-04-03 13:20:00,
2013-04-03 15:24:00,38.5,26.8,29.98,WNW,292,0.0,2.7,63,0.00,,,0.00,WUHU21636XXSP,2013-04-03 13:24:00,
2013-04-03 15:29:00,38.5,26.8,29.98,WNW,292,0.0,2.7,64,0.00,,,0.00,WUHU21636XXSP,2013-04-03 13:29:00,
2013-04-03 15:30:00,36.0,27.1,29.99,WNW,303,0.0,0.0,70,0.00,BKN,,0.00,WeatherDisplay:10.37,2013-04-03 13:30:00,
2013-04-03 15:34:00,38.5,26.8,29.98,WNW,292,0.0,2.5,64,0.00,,,0.00,WUHU21636XXSP,2013-04-03 13:34:00,
2013-04-03 15:39:00,38.3,27.0,29.98,ESE,112,1.1,3.6,64,0.00,,,0.00,WUHU21636XXSP,2013-04-03 13:39:00,
2013-04-03 15:40:00,35.8,26.9,29.99,ESE,121,2.0,2.0,70,0.00,BKN,,0.00,WeatherDisplay:10.37,2013-04-03 13:40:00,
2013-04-03 15:44:00,38.5,27.5,29.98,ESE,112,1.1,3.6,65,0.00,,,0.00,WUHU21636XXSP,2013-04-03 13:44:00,
2013-04-03 15:49:00,38.7,27.3,29.98,WNW,292,0.4,1.1,64,0.00,,,0.00,WUHU21636XXSP,2013-04-03 13:49:00,
2013-04-03 15:50:00,35.4,26.9,29.99,SE,130,0.0,2.0,71,0.00,BKN,,0.00,WeatherDisplay:10.37,2013-04-03 13:50:00,
2013-04-03 15:54:00,38.7,27.3,29.98,East,90,0.0,2.0,64,0.00,,,0.00,WUHU21636XXSP,2013-04-03 13:54:00,
2013-04-03 15:59:00,38.7,27.3,29.98,WNW,292,2.2,2.2,64,0.00,,,0.00,WUHU21636XXSP,2013-04-03 13:59:00,
2013-04-03 16:00:00,35.4,26.9,29.99,WNW,283,1.0,2.0,71,0.00,BKN,,0.00,WeatherDisplay:10.37,2013-04-03 14:00:00,
2013-04-03 16:04:00,38.5,27.1,29.98,WNW,292,4.0,4.0,64,0.00,,,0.00,WUHU21636XXSP,2013-04-03 14:04:00,
2013-04-03 16:09:00,38.7,27.7,29.98,ESE,112,2.5,4.0,65,0.00,,,0.00,WUHU21636XXSP,2013-04-03 14:09:00,
2013-04-03 16:10:00,35.2,26.8,29.99,WSW,238,0.0,1.0,71,0.00,BKN,,0.00,WeatherDisplay:10.37,2013-04-03 14:10:00,
2013-04-03 16:14:00,38.5,27.1,29.98,WNW,292,0.0,4.0,64,0.00,,,0.00,WUHU21636XXSP,2013-04-03 14:14:00,
2013-04-03 16:19:00,38.3,27.5,29.98,WNW,292,3.1,3.1,65,0.00,,,0.00,WUHU21636XXSP,2013-04-03 14:19:00,
2013-04-03 16:20:00,35.2,26.8,29.99,WNW,283,0.0,1.0,71,0.00,BKN,,0.00,WeatherDisplay:10.37,2013-04-03 14:20:00,
2013-04-03 16:24:00,37.9,27.5,29.98,WNW,292,2.0,5.1,66,0.00,,,0.00,WUHU21636XXSP,2013-04-03 14:24:00,
2013-04-03 16:29:00,37.9,27.5,29.98,WNW,292,2.5,5.1,66,0.00,,,0.00,WUHU21636XXSP,2013-04-03 14:29:00,
2013-04-03 16:30:00,35.1,26.9,30.00,WNW,292,0.0,0.0,72,0.00,BKN,,0.00,WeatherDisplay:10.37,2013-04-03 14:30:00,
2013-04-03 16:34:00,37.6,27.1,29.99,WNW,292,2.2,2.5,66,0.00,,,0.00,WUHU21636XXSP,2013-04-03 14:34:00,
2013-04-03 16:39:00,37.4,27.0,29.99,NW,315,0.0,3.4,66,0.00,,,0.00,WUHU21636XXSP,2013-04-03 14:39:00,
2013-04-03 16:40:00,34.9,26.8,29.99,SE,142,0.0,0.0,72,0.00,BKN,,0.00,WeatherDisplay:10.37,2013-04-03 14:40:00,
2013-04-03 16:44:00,37.2,27.1,29.99,WNW,292,1.6,4.5,67,0.00,,,0.00,WUHU21636XXSP,2013-04-03 14:44:00,
2013-04-03 16:49:00,37.2,27.1,29.99,WNW,292,0.0,4.5,67,0.00,,,0.00,WUHU21636XXSP,2013-04-03 14:49:00,
2013-04-03 16:50:00,34.9,27.1,30.00,SSW,213,0.0,0.0,73,0.00,BKN,,0.00,WeatherDisplay:10.37,2013-04-03 14:50:00,
2013-04-03 16:54:00,37.6,27.9,29.99,ESE,112,0.0,1.8,66,0.00,,,0.00,WUHU21636XXSP,2013-04-03 14:54:00,
2013-04-03 16:59:00,37.6,27.9,29.99,ESE,112,0.0,0.9,66,0.00,,,0.00,WUHU21636XXSP,2013-04-03 14:59:00,
2013-04-03 17:00:00,34.7,26.9,30.00,ESE,105,0.0,0.0,73,0.00,BKN,,0.00,WeatherDisplay:10.37,2013-04-03 15:00:00,
2013-04-03 17:04:00,37.2,27.1,29.98,SSE,157,0.0,1.6,67,0.00,,,0.00,WUHU21636XXSP,2013-04-03 15:04:00,
2013-04-03 17:09:00,37.0,27.3,29.99,WNW,292,1.8,2.7,68,0.00,,,0.00,WUHU21636XXSP,2013-04-03 15:09:00,
2013-04-03 17:10:00,34.7,26.9,30.00,ESE,117,0.0,1.0,73,0.00,BKN,,0.00,WeatherDisplay:10.37,2013-04-03 15:10:00,
2013-04-03 17:14:00,37.0,27.3,29.99,SE,135,0.0,2.7,68,0.00,,,0.00,WUHU21636XXSP,2013-04-03 15:14:00,
2013-04-03 17:19:00,37.0,27.3,29.99,SE,135,1.3,2.5,69,0.00,,,0.00,WUHU21636XXSP,2013-04-03 15:19:00,
2013-04-03 17:20:00,34.5,26.8,29.99,ESE,112,0.0,0.0,73,0.00,BKN,,0.00,WeatherDisplay:10.37,2013-04-03 15:20:00,
2013-04-03 17:24:00,37.0,27.3,29.99,NW,315,1.6,2.7,68,0.00,,,0.00,WUHU21636XXSP,2013-04-03 15:24:00,
2013-04-03 17:29:00,36.7,27.0,29.99,WNW,292,0.0,2.7,68,0.00,,,0.00,WUHU21636XXSP,2013-04-03 15:29:00,
2013-04-03 17:30:00,34.5,27.1,29.99,WNW,292,0.0,0.0,74,0.00,BKN,,0.00,WeatherDisplay:10.37,2013-04-03 15:30:00,
2013-04-03 17:34:00,36.7,27.0,29.99,ESE,112,1.6,1.6,69,0.00,,,0.00,WUHU21636XXSP,2013-04-03 15:34:00,
2013-04-03 17:39:00,36.7,27.3,29.98,SSE,157,0.0,1.6,69,0.00,,,0.00,WUHU21636XXSP,2013-04-03 15:39:00,
2013-04-03 17:40:00,34.5,27.1,30.00,WNW,299,0.0,0.0,74,0.00,BKN,,0.00,WeatherDisplay:10.37,2013-04-03 15:40:00,
2013-04-03 17:44:00,36.7,27.3,29.98,NW,315,2.0,2.0,69,0.00,,,0.00,WUHU21636XXSP,2013-04-03 15:44:00,
2013-04-03 17:49:00,36.7,27.3,29.99,ESE,112,1.6,2.0,69,0.00,,,0.00,WUHU21636XXSP,2013-04-03 15:49:00,
2013-04-03 17:50:00,34.3,26.9,30.00,WNW,297,0.0,0.0,74,0.00,BKN,,0.00,WeatherDisplay:10.37,2013-04-03 15:50:00,
2013-04-03 17:54:00,36.7,27.3,29.99,NW,315,0.7,2.0,69,0.00,,,0.00,WUHU21636XXSP,2013-04-03 15:54:00,
2013-04-03 17:59:00,36.5,27.1,29.99,WNW,292,0.0,3.8,69,0.00,,,0.00,WUHU21636XXSP,2013-04-03 15:59:00,
2013-04-03 18:00:00,34.3,27.2,29.99,WNW,292,0.0,1.0,75,0.00,BKN,,0.00,WeatherDisplay:10.37,2013-04-03 16:00:00,
2013-04-03 18:04:00,36.5,27.7,29.99,WNW,292,0.0,3.8,70,0.00,,,0.00,WUHU21636XXSP,2013-04-03 16:04:00,
2013-04-03 18:09:00,36.5,27.7,29.99,West,270,0.0,0.4,70,0.00,,,0.00,WUHU21636XXSP,2013-04-03 16:09:00,
2013-04-03 18:10:00,34.2,27.1,29.99,WNW,292,1.0,1.0,75,0.00,BKN,,0.00,WeatherDisplay:10.37,2013-04-03 16:10:00,
2013-04-03 18:14:00,36.5,27.1,29.99,SE,135,0.0,0.4,69,0.00,,,0.00,WUHU21636XXSP,2013-04-03 16:14:00,
2013-04-03 18:20:00,36.3,27.0,29.99,WNW,292,0.0,0.0,69,0.00,,,0.00,WUHU21636XXSP,2013-04-03 16:20:00,
2013-04-03 18:25:00,36.5,27.1,29.99,WNW,292,2.2,2.2,69,0.00,,,0.00,WUHU21636XXSP,2013-04-03 16:25:00,
2013-04-03 18:30:00,36.5,27.1,29.99,WNW,292,1.1,2.2,69,0.00,,,0.00,WUHU21636XXSP,2013-04-03 16:30:00,
2013-04-03 18:35:00,36.5,27.1,29.99,ESE,112,2.0,2.2,69,0.00,,,0.00,WUHU21636XXSP,2013-04-03 16:35:00,
2013-04-03 18:40:00,36.5,27.1,29.99,NW,315,0.0,2.2,70,0.00,,,0.00,WUHU21636XXSP,2013-04-03 16:40:00,
2013-04-03 18:45:00,36.5,27.1,29.99,West,270,0.7,2.2,69,0.00,,,0.00,WUHU21636XXSP,2013-04-03 16:45:00,
2013-04-03 18:50:00,36.5,27.1,29.99,WNW,292,0.0,0.7,69,0.00,,,0.00,WUHU21636XXSP,2013-04-03 16:50:00,
2013-04-03 18:55:00,36.3,27.0,29.99,ESE,112,1.1,1.1,69,0.00,,,0.00,WUHU21636XXSP,2013-04-03 16:55:00,
2013-04-03 19:00:00,36.3,27.0,29.99,ESE,112,0.0,2.2,70,0.00,,,0.00,WUHU21636XXSP,2013-04-03 17:00:00,
2013-04-03 19:05:00,36.3,27.0,29.99,SE,135,0.0,2.2,70,0.00,,,0.00,WUHU21636XXSP,2013-04-03 17:05:00,
2013-04-03 19:10:00,36.1,27.3,29.99,SE,135,0.0,1.8,70,0.00,,,0.00,WUHU21636XXSP,2013-04-03 17:10:00,
2013-04-03 19:15:00,36.1,27.3,29.99,NW,315,0.0,1.8,70,0.00,,,0.00,WUHU21636XXSP,2013-04-03 17:15:00,
2013-04-03 19:20:00,36.1,27.3,30.00,WNW,292,0.0,0.7,70,0.00,,,0.00,WUHU21636XXSP,2013-04-03 17:20:00,
2013-04-03 19:25:00,36.0,27.1,30.00,WNW,292,0.0,0.7,70,0.00,,,0.00,WUHU21636XXSP,2013-04-03 17:25:00,
2013-04-03 19:30:00,35.8,27.0,30.00,SE,135,0.0,1.6,70,0.00,,,0.00,WUHU21636XXSP,2013-04-03 17:30:00,
2013-04-03 19:35:00,35.8,27.0,30.00,ESE,112,2.5,2.5,70,0.00,,,0.00,WUHU21636XXSP,2013-04-03 17:35:00,
2013-04-03 19:40:00,35.6,26.8,30.00,ESE,112,0.0,2.5,71,0.00,,,0.00,WUHU21636XXSP,2013-04-03 17:40:00,
2013-04-03 19:45:00,35.4,26.8,30.00,WNW,292,0.0,2.5,71,0.00,,,0.00,WUHU21636XXSP,2013-04-03 17:45:00,
2013-04-03 19:50:00,35.4,26.8,30.00,WNW,292,1.6,2.0,71,0.00,,,0.00,WUHU21636XXSP,2013-04-03 17:50:00,
2013-04-03 19:55:00,35.4,26.8,30.00,ESE,112,0.0,2.0,71,0.00,,,0.00,WUHU21636XXSP,2013-04-03 17:55:00,
2013-04-03 20:00:00,35.2,26.6,30.00,ESE,112,1.3,1.6,71,0.00,,,0.00,WUHU21636XXSP,2013-04-03 18:00:00,
2013-04-03 20:05:00,35.2,26.6,30.00,SE,135,0.0,1.3,71,0.00,,,0.00,WUHU21636XXSP,2013-04-03 18:05:00,
2013-04-03 20:10:00,35.2,26.6,30.01,NW,315,0.0,2.0,71,0.00,,,0.00,WUHU21636XXSP,2013-04-03 18:10:00,
2013-04-03 20:15:00,35.1,26.8,30.01,SE,135,0.0,2.0,72,0.00,,,0.00,WUHU21636XXSP,2013-04-03 18:15:00,
2013-04-03 20:20:00,33.6,27.2,29.98,WNW,285,0.0,1.0,77,0.00,CLR,,0.00,WeatherDisplay:10.37,2013-04-03 18:20:00,
2013-04-03 20:21:00,35.1,26.8,30.00,WNW,292,0.0,0.0,72,0.00,,,0.00,WUHU21636XXSP,2013-04-03 18:21:00,
2013-04-03 20:26:00,35.1,26.8,30.01,WNW,292,1.6,1.6,72,0.00,,,0.00,WUHU21636XXSP,2013-04-03 18:26:00,
2013-04-03 20:30:00,33.4,27.3,29.98,SW,219,1.0,1.0,78,0.00,CLR,,0.00,WeatherDisplay:10.37,2013-04-03 18:30:00,
2013-04-03 20:31:00,34.9,26.6,30.01,SSW,202,0.0,1.6,72,0.00,,,0.00,WUHU21636XXSP,2013-04-03 18:31:00,
2013-04-03 20:36:00,34.9,26.6,30.00,SE,135,0.0,2.9,72,0.00,,,0.00,WUHU21636XXSP,2013-04-03 18:36:00,
2013-04-03 20:40:00,33.4,27.3,29.98,WNW,292,0.0,1.0,78,0.00,CLR,,0.00,WeatherDisplay:10.37,2013-04-03 18:40:00,
2013-04-03 20:41:00,34.9,26.6,30.00,WNW,292,0.0,2.9,73,0.00,,,0.00,WUHU21636XXSP,2013-04-03 18:41:00,
2013-04-03 20:46:00,34.9,26.6,30.01,SE,135,0.0,0.0,73,0.00,,,0.00,WUHU21636XXSP,2013-04-03 18:46:00,
2013-04-03 20:50:00,33.4,27.3,29.97,SSW,213,0.0,0.0,78,0.00,CLR,,0.00,WeatherDisplay:10.37,2013-04-03 18:50:00,
2013-04-03 20:51:00,34.9,26.6,30.01,ESE,112,0.0,0.0,73,0.00,,,0.00,WUHU21636XXSP,2013-04-03 18:51:00,
2013-04-03 20:56:00,34.7,26.8,30.01,NE,45,0.0,0.0,73,0.00,,,0.00,WUHU21636XXSP,2013-04-03 18:56:00,
2013-04-03 21:00:00,33.4,27.6,29.97,WNW,301,1.0,1.0,79,0.00,CLR,,0.00,WeatherDisplay:10.37,2013-04-03 19:00:00,
2013-04-03 21:01:00,34.7,26.8,30.00,ESE,112,0.0,0.9,73,0.00,,,0.00,WUHU21636XXSP,2013-04-03 19:01:00,
2013-04-03 21:06:00,34.7,26.8,30.01,ESE,112,0.0,0.9,73,0.00,,,0.00,WUHU21636XXSP,2013-04-03 19:06:00,
2013-04-03 21:10:00,33.4,27.6,29.97,SSW,212,0.0,1.0,79,0.00,CLR,,0.00,WeatherDisplay:10.37,2013-04-03 19:10:00,
2013-04-03 21:12:00,34.7,26.8,30.01,West,270,0.0,0.0,73,0.00,,,0.00,WUHU21636XXSP,2013-04-03 19:12:00,
2013-04-03 21:17:00,34.5,26.6,30.00,WNW,292,0.0,0.0,73,0.00,,,0.00,WUHU21636XXSP,2013-04-03 19:17:00,
2013-04-03 21:20:00,33.4,27.6,29.97,SW,234,0.0,0.0,79,0.00,CLR,,0.00,WeatherDisplay:10.37,2013-04-03 19:20:00,
2013-04-03 21:22:00,34.5,26.6,30.01,WNW,292,0.0,0.0,74,0.00,,,0.00,WUHU21636XXSP,2013-04-03 19:22:00,
2013-04-03 21:27:00,34.5,26.6,30.00,WSW,247,0.0,0.0,74,0.00,,,0.00,WUHU21636XXSP,2013-04-03 19:27:00,
2013-04-03 21:30:00,33.4,27.6,29.97,WNW,284,0.0,1.0,79,0.00,CLR,,0.00,WeatherDisplay:10.37,2013-04-03 19:30:00,
2013-04-03 21:32:00,34.5,26.6,30.00,NW,315,0.4,0.4,74,0.00,,,0.00,WUHU21636XXSP,2013-04-03 19:32:00,
2013-04-03 21:37:00,34.5,26.6,30.01,WNW,292,0.0,0.4,74,0.00,,,0.00,WUHU21636XXSP,2013-04-03 19:37:00,
2013-04-03 21:40:00,33.4,27.6,29.97,ESE,112,0.0,2.0,79,0.00,CLR,,0.00,WeatherDisplay:10.37,2013-04-03 19:40:00,
2013-04-03 21:42:00,34.3,26.8,30.01,WNW,292,0.0,0.4,74,0.00,,,0.00,WUHU21636XXSP,2013-04-03 19:42:00,
2013-04-03 21:47:00,34.3,26.8,30.00,SSW,202,0.0,0.0,75,0.00,,,0.00,WUHU21636XXSP,2013-04-03 19:47:00,
2013-04-03 21:50:00,33.3,27.5,29.97,WNW,288,0.0,0.0,79,0.00,CLR,,0.00,WeatherDisplay:10.37,2013-04-03 19:50:00,
2013-04-03 21:52:00,34.3,26.8,30.00,WNW,292,0.9,0.9,75,0.00,,,0.00,WUHU21636XXSP,2013-04-03 19:52:00,
2013-04-03 21:57:00,34.3,26.8,30.00,WNW,292,0.7,0.9,75,0.00,,,0.00,WUHU21636XXSP,2013-04-03 19:57:00,
2013-04-03 22:00:00,33.1,27.3,29.96,WNW,286,0.0,1.0,79,0.00,CLR,,0.00,WeatherDisplay:10.37,2013-04-03 20:00:00,
2013-04-03 22:02:00,34.2,27.0,30.00,WNW,292,0.0,0.9,75,0.00,,,0.00,WUHU21636XXSP,2013-04-03 20:02:00,
2013-04-03 22:07:00,34.2,27.0,30.00,WNW,292,0.0,1.3,75,0.00,,,0.00,WUHU21636XXSP,2013-04-03 20:07:00,
2013-04-03 22:10:00,33.1,27.3,29.96,WNW,292,1.0,1.0,79,0.00,CLR,,0.00,WeatherDisplay:10.37,2013-04-03 20:10:00,
2013-04-03 22:13:00,34.2,27.0,30.00,SE,135,0.0,1.3,75,0.00,,,0.00,WUHU21636XXSP,2013-04-03 20:13:00,
2013-04-03 22:18:00,34.2,27.0,30.00,WNW,292,1.1,1.1,75,0.00,,,0.00,WUHU21636XXSP,2013-04-03 20:18:00,
2013-04-03 22:20:00,33.1,27.3,29.96,West,281,1.0,1.0,79,0.00,CLR,,0.00,WeatherDisplay:10.37,2013-04-03 20:20:00,
2013-04-03 22:23:00,34.0,27.0,30.00,WNW,292,0.0,1.1,76,0.00,,,0.00,WUHU21636XXSP,2013-04-03 20:23:00,
2013-04-03 22:28:00,34.0,27.0,29.99,WNW,292,0.0,1.1,76,0.00,,,0.00,WUHU21636XXSP,2013-04-03 20:28:00,
2013-04-03 22:30:00,33.1,27.3,29.95,WNW,292,0.0,1.0,79,0.00,CLR,,0.00,WeatherDisplay:10.37,2013-04-03 20:30:00,
2013-04-03 22:33:00,34.0,27.0,29.99,NW,315,0.0,0.9,76,0.00,,,0.00,WUHU21636XXSP,2013-04-03 20:33:00,
2013-04-03 22:37:00,34.0,27.0,29.99,NW,315,0.0,0.7,76,0.00,,,0.00,WUHU21636XXSP,2013-04-03 20:37:00,
2013-04-03 22:40:00,33.1,27.3,29.95,WNW,292,0.0,1.0,79,0.00,CLR,,0.00,WeatherDisplay:10.37,2013-04-03 20:40:00,
2013-04-03 22:42:00,34.0,27.0,29.99,South,180,0.0,1.3,76,0.00,,,0.00,WUHU21636XXSP,2013-04-03 20:42:00,
2013-04-03 22:48:00,34.0,27.0,29.99,WNW,292,0.0,1.3,76,0.00,,,0.00,WUHU21636XXSP,2013-04-03 20:48:00,
2013-04-03 22:50:00,33.1,27.3,29.95,WNW,292,0.0,0.0,79,0.00,CLR,,0.00,WeatherDisplay:10.37,2013-04-03 20:50:00,
2013-04-03 22:53:00,34.0,27.0,29.99,ESE,112,0.0,0.0,76,0.00,,,0.00,WUHU21636XXSP,2013-04-03 20:53:00,
2013-04-03 22:58:00,34.0,27.0,29.99,WNW,292,0.9,0.9,76,0.00,,,0.00,WUHU21636XXSP,2013-04-03 20:58:00,
2013-04-03 23:00:00,33.1,27.6,29.94,WNW,292,0.0,1.0,80,0.00,CLR,,0.00,WeatherDisplay:10.37,2013-04-03 21:00:00,
2013-04-03 23:03:00,34.0,27.0,29.99,NW,315,1.1,1.1,76,0.00,,,0.00,WUHU21636XXSP,2013-04-03 21:03:00,
2013-04-03 23:08:00,34.0,27.0,29.99,West,270,0.0,1.1,76,0.00,,,0.00,WUHU21636XXSP,2013-04-03 21:08:00,
2013-04-03 23:10:00,33.1,27.6,29.94,NW,305,0.0,2.0,80,0.00,CLR,,0.00,WeatherDisplay:10.37,2013-04-03 21:10:00,
2013-04-03 23:13:00,34.0,27.0,29.99,West,270,0.0,1.1,76,0.00,,,0.00,WUHU21636XXSP,2013-04-03 21:13:00,
2013-04-03 23:18:00,34.0,27.0,29.99,WNW,292,0.0,0.4,76,0.00,,,0.00,WUHU21636XXSP,2013-04-03 21:18:00,
2013-04-03 23:20:00,33.1,27.6,29.94,WNW,292,1.0,1.0,80,0.00,CLR,,0.00,WeatherDisplay:10.37,2013-04-03 21:20:00,
2013-04-03 23:25:00,34.0,27.3,29.99,WSW,248,0.0,0.7,76,0.00,,,0.00,WUHU21636XXSP,2013-04-03 21:25:00,
2013-04-03 23:30:00,33.8,27.1,29.99,ESE,113,0.0,0.7,76,0.00,,,0.00,WUHU21636XXSP,2013-04-03 21:30:00,
2013-04-03 23:35:00,33.6,26.9,29.99,WSW,248,0.0,0.0,76,0.00,,,0.00,WUHU21636XXSP,2013-04-03 21:35:00,
2013-04-03 23:40:00,33.6,26.9,29.99,SE,135,0.0,0.0,76,0.00,,,0.00,WUHU21636XXSP,2013-04-03 21:40:00,
2013-04-03 23:45:00,33.6,27.2,29.99,WNW,293,0.0,0.0,77,0.00,,,0.00,WUHU21636XXSP,2013-04-03 21:45:00,
2013-04-03 23:50:00,33.6,27.2,29.99,WNW,293,0.0,0.0,77,0.00,,,0.00,WUHU21636XXSP,2013-04-03 21:50:00,
2013-04-03 23:55:00,33.6,27.2,29.99,WNW,293,0.0,0.0,77,0.00,,,0.00,WUHU21636XXSP,2013-04-03 21:55:00,